Date,TemperatureHighF,TemperatureAvgF,TemperatureLowF,DewpointHighF,DewpointAvgF,DewpointLowF,HumidityHigh,HumidityAvg,HumidityLow,PressureMaxIn,PressureMinIn,WindSpeedMaxMPH,WindSpeedAvgMPH,GustSpeedMaxMPH,PrecipitationSumIn
2014-1-1,32.7,24.4,15.6,14.7,8.1,3.0,74,50,34,30.43,30.25,20,1,20,0.00
2014-1-2,24.1,17.6,4.7,19.4,14.0,-0.1,90,86,63,30.39,29.81,14,2,14,0.13
2014-1-3,17.5,8.3,3.0,5.8,-2.4,-13.5,83,63,40,30.46,29.70,18,2,18,0.03
2014-1-4,28.2,16.4,0.7,20.5,4.1,-10.0,80,59,33,30.57,30.34,17,1,17,0.00
2014-1-5,42.9,32.1,23.3,41.3,26.8,14.0,100,81,63,30.38,29.94,10,0,10,0.10
2014-1-6,58.6,45.5,28.2,58.6,42.1,14.4,100,89,53,29.94,29.33,29,2,29,0.20
2014-1-7,29.5,14.0,7.6,24.4,-4.5,-14.2,89,44,29,30.32,29.56,19,4,22,0.00
2014-1-8,23.5,15.4,6.7,5.9,-2.5,-11.4,56,45,32,30.55,30.32,14,1,14,0.00
2014-1-9,31.2,22.7,17.2,11.6,6.9,2.1,73,51,35,30.69,30.49,12,1,12,0.00
2014-1-10,41.5,30.2,15.4,37.3,25.4,8.8,89,82,72,30.65,30.30,2,0,2,0.06
2014-1-11,60.5,51.7,38.0,60.5,50.5,34.8,100,96,81,30.30,29.34,19,2,27,0.64
2014-1-12,53.3,43.8,35.3,53.3,33.3,23.2,100,68,48,30.03,29.35,20,4,20,0.10
2014-1-13,51.9,42.5,31.6,48.5,32.7,23.4,95,70,40,30.17,29.96,15,1,15,0.00
2014-1-14,51.4,48.8,44.1,50.8,47.4,43.1,100,95,81,29.95,29.64,17,1,17,0.61
2014-1-15,49.2,42.3,34.4,43.3,38.2,32.0,99,86,63,30.06,29.79,12,0,12,0.00
2014-1-16,44.9,41.0,37.2,40.7,38.2,34.3,99,90,79,29.95,29.86,4,0,4,0.00
2014-1-17,46.2,40.6,35.5,38.6,30.3,20.3,90,69,38,30.03,29.94,16,1,16,0.00
2014-1-18,38.5,36.5,34.4,37.9,34.5,29.2,100,92,75,29.95,29.63,7,0,7,0.31
2014-1-19,36.5,32.8,29.1,34.5,24.5,18.6,95,72,51,29.77,29.61,20,4,26,0.00
2014-1-20,44.8,37.4,27.6,30.3,22.7,4.7,77,56,39,29.90,29.54,17,3,19,0.00
2014-1-21,27.5,17.8,11.6,10.0,4.8,-4.6,87,59,33,30.08,29.85,9,1,16,0.08
2014-1-22,20.0,11.8,7.7,7.8,-1.0,-8.8,84,58,33,29.94,29.68,12,2,16,0.00
2014-1-23,22.4,12.3,4.5,-1.1,-5.7,-9.2,61,44,28,30.22,29.94,16,2,16,0.00
2014-1-24,18.6,12.8,6.7,0.2,-5.2,-9.6,58,44,29,30.32,30.13,13,2,13,0.00
2014-1-25,37.9,27.9,14.4,29.0,18.1,0.2,92,67,52,30.12,29.39,27,3,33,0.00
2014-1-26,25.4,20.0,15.4,18.0,5.5,-5.4,77,54,31,29.93,29.40,26,3,26,0.00
2014-1-27,47.3,33.8,20.8,38.3,19.6,-7.3,88,58,23,30.04,29.59,26,3,26,0.00
2014-1-28,21.8,18.0,12.4,-3.7,-10.2,-18.3,38,28,18,30.35,30.05,16,1,16,0.00
2014-1-29,26.1,20.4,16.2,12.4,1.4,-8.4,80,46,23,30.27,30.04,16,1,16,0.03
2014-1-30,30.7,21.3,10.9,17.2,3.8,-6.4,79,48,28,30.49,30.24,13,0,13,0.00
2014-1-31,43.6,35.5,22.9,26.9,18.1,8.4,86,53,26,30.24,30.07,10,1,14,0.00